[[{"header":{"parameterUnit":"m.s-1","parameterCategory":1,"la1":30.2991,"la2":30.254,"lo1":-89.0895,"lo2":-89.0444,"dy":0.0017,"dx":0.0017,"nx":28,"ny":28,"refTime":"2025-01-11T09:00:00:Z","depth":0,"parameterNumber":2,"parameterNumberName":"U-component_of_WINDS"},"data":[0,0,0,0,0,0,0,0,0,0,0,0,0,0,0,0,0,0,0,0,0,0,0,0,0,0,0,0,0,0,0,0,0,0,0,0,0,0,0,0,0,0,0,0,0,0,0,0,0,0,0,0,0,0,0,0,0,0,-6.0724,-6.0724,0,-6.0774,-6.0774,-6.0775,-6.0614,-6.0609,-6.0604,-6.0599,-6.0654,-6.066,-6.0666,0,0,0,0,0,0,0,0,0,0,0,0,0,-6.0491,-6.0496,-6.0724,-6.0724,-6.0725,-6.0774,-6.0774,-6.0775,-6.0615,-6.0609,-6.0603,-6.0597,-6.0652,-6.0659,-6.0666,0,0,0,0,0,0,0,0,0,0,0,0,0,-6.0572,-6.0498,-6.0724,-6.0651,-6.0645,-6.0774,-6.0774,-6.0775,-6.0616,-6.0609,-6.0601,-6.0594,-6.0649,-6.0658,-6.0667,-6.087,0,0,-6.0695,-6.0698,0,0,0,0,0,0,0,0,-6.0567,-6.058,-6.0661,-6.0656,-6.0649,-6.068,-6.0712,-6.0807,-6.0618,-6.0627,-6.0599,-6.0591,-6.0669,-6.0676,-6.0701,-6.0872,-6.0875,-6.0695,-6.0701,-6.0705,-6.0707,0,0,0,0,0,0,0,-6.0562,-6.0577,-6.0743,-6.0662,-6.0655,-6.0616,-6.0619,-6.0729,-6.0688,-6.0626,-6.0614,-6.0622,-6.0664,-6.0693,-6.0701,-6.0875,-6.0695,-6.0703,-6.0709,-6.0712,-6.1213,-6.122,0,0,0,0,0,0,-6.0566,-6.0574,-6.0742,-6.0745,-6.0589,-6.0626,-6.063,-6.0678,-6.0687,-6.0681,-6.0628,-6.0614,-6.0681,-6.0691,-6.0703,-6.0938,-6.0705,-6.0713,-6.0718,-6.1205,-6.1215,-6.1223,0,0,0,0,0,0,-6.0561,-6.0582,-6.074,-6.0656,-6.0673,-6.0638,-6.0693,-6.0682,-6.0711,-6.0689,-6.0681,-6.0665,-6.0676,-6.069,-6.0829,-6.0938,-6.0717,-6.0725,-6.1196,-6.1208,-6.1219,-6.1412,0,0,0,0,0,0,-6.0555,-6.0581,-6.0658,-6.0659,-6.0678,-6.0865,-6.07,-6.0689,-6.0727,-6.0709,-6.0721,-6.0716,-6.0671,-6.0816,-6.0838,-6.0946,-6.0732,-6.1186,-6.1201,-6.1215,-6.1396,-6.1429,-6.1458,0,0,0,0,0,-6.0547,-6.0711,-6.0662,-6.0683,-6.0773,-6.0872,-6.0883,-6.0826,-6.0736,-6.0812,-6.0798,-6.0716,-6.0923,-6.0832,-6.0854,-6.0967,-6.1179,-6.1197,-6.1214,-6.1382,-6.1423,-6.1457,0,0,0,0,0,0,-6.0724,-6.071,-6.0656,-6.0825,-6.0851,-6.0844,-6.0938,-6.0872,-6.0924,-6.0906,-6.0835,-6.0839,-6.099,-6.0993,-6.0891,-6.1163,-6.1035,-6.1058,-6.1155,-6.1194,-6.1224,-6.1219,-6.074,0,0,0,0,0,-6.0783,-6.0864,-6.0847,-6.0998,-6.1014,-6.0975,-6.1016,-6.097,-6.0994,-6.1005,-6.1,-6.1028,-6.1098,-6.1146,-6.1211,-6.1397,-6.1396,-6.1486,-6.1516,-6.1542,-6.1562,-6.1658,-6.1697,-6.1281,-6.1281,-6.1281,0,0,-6.0905,-6.0907,-6.0963,-6.1034,-6.1048,-6.1133,-6.0985,-6.1082,-6.1144,-6.1019,-6.1149,-6.1148,-6.1173,-6.1336,-6.1407,-6.1343,-6.1677,-6.1565,-6.1585,-6.1591,-6.1681,-6.172,-6.1755,-6.1293,-6.1291,-6.1289,0,0,-6.117,-6.1181,-6.1306,-6.1324,-6.1347,-6.132,-6.1351,-6.1355,-6.1348,-6.1477,-6.1385,-6.1459,-6.1583,-6.1604,-6.1632,-6.1905,-6.1831,-6.1929,-6.2089,-6.2184,-6.2216,-6.2245,-6.234,-6.2375,-6.1949,-6.195,-6.195,0,-6.1319,-6.1442,-6.138,-6.1482,-6.1515,-6.1406,-6.1532,-6.1553,-6.1597,-6.1623,-6.155,-6.1702,-6.1712,-6.1877,-6.1944,-6.1971,-6.2002,-6.1925,-6.2217,-6.2245,-6.2271,-6.236,-6.2397,-6.1961,-6.196,-6.1959,-6.1958,0,-6.1623,-6.1711,-6.1809,-6.1852,-6.1898,-6.2012,-6.1967,-6.202,-6.1971,-6.1952,-6.2084,-6.2093,-6.2155,-6.2192,-6.2146,-6.235,-6.2309,-6.2229,-6.2098,-6.2323,-6.2406,-6.244,-6.1978,-6.1974,-6.197,-6.1967,0,0,-6.1999,-6.2006,-6.2043,-6.206,-6.2079,-6.2145,-6.2255,-6.2315,-6.2361,-6.2397,-6.2485,-6.2593,-6.2517,-6.2549,-6.2504,-6.2588,-6.2801,-6.2496,-6.2496,-6.255,-6.3024,-6.3083,-6.3124,-6.2753,-6.276,-6.2765,-6.3021,0,-6.2257,-6.2442,-6.2389,-6.2575,-6.2654,-6.2552,-6.2647,-6.2669,-6.2655,-6.272,-6.2704,-6.278,-6.2676,-6.2694,-6.2773,-6.2759,-6.2895,-6.274,-6.2834,-6.2838,-6.2828,-6.3167,-6.323,-6.3471,-6.3053,-6.3059,-6.3063,0,-6.2583,-6.2628,-6.2822,-6.2825,-6.2856,-6.2943,-6.2993,-6.3057,-6.308,-6.3063,-6.3099,-6.3037,-6.3145,-6.3016,-6.3163,-6.3058,-6.3094,-6.3094,-6.3102,-6.3106,-6.2962,-6.3178,-6.3547,-6.3583,-6.3114,-6.311,-6.3106,0,-6.2834,-6.2944,-6.3073,-6.3092,-6.31,-6.3163,-6.317,-6.3185,-6.3224,-6.3269,-6.3294,-6.3352,-6.3383,-6.3429,-6.3385,-6.3296,-6.3538,-6.3406,-6.3526,-6.3527,-6.3579,-6.3575,-6.3956,-6.3608,-6.3607,-6.3607,-6.3606,0,-6.3126,-6.3248,-6.3186,-6.3265,-6.3399,-6.3337,-6.3471,-6.3466,-6.3481,-6.3557,-6.3474,-6.3548,-6.3486,-6.3555,-6.3522,-6.3647,-6.3663,-6.3652,-6.3641,-6.3657,-6.3658,-6.3677,-6.3658,-6.3616,-6.3614,-6.3612,-6.3611,0,-6.3428,-6.3391,-6.3525,-6.3522,-6.3524,-6.3622,-6.3619,-6.3692,-6.3672,-6.377,-6.379,-6.3758,-6.3834,-6.3796,-6.3876,-6.3853,-6.4014,-6.3982,-6.4006,-6.3996,-6.4117,-6.4105,-6.452,-6.457,-6.4194,-6.4197,-6.42,0,-6.3614,-6.3705,-6.3712,-6.3756,-6.3768,-6.3842,-6.3881,-6.3825,-6.3869,-6.3901,-6.3971,-6.404,-6.4091,-6.4219,-6.4203,-6.4263,-6.423,-6.4372,-6.4239,-6.4252,-6.4229,-6.4222,-6.423,-6.4398,-6.4402,-6.4406,-6.4409,0,-6.3949,-6.3927,-6.3986,-6.4039,-6.4088,-6.4128,-6.4161,-6.4202,-6.4147,-6.4201,-6.4277,-6.4318,-6.4398,-6.4467,-6.452,-6.4526,-6.4459,-6.4451,-6.4481,-6.4497,-6.4506,-6.45,-6.4075,-6.4441,-6.4438,-6.4435,-6.4434,-6.4432,-6.4197,-6.4272,-6.4288,-6.4356,-6.4375,-6.4407,-6.4475,-6.4463,-6.4525,-6.4585,-6.4549,-6.4638,-6.4658,-6.4721,-6.4737,-6.4806,-6.475,-6.4795,-6.4805,-6.4816,-6.4831,-6.4498,-6.4816,-6.4815,-6.4814,-6.4813,-6.4813,0,-6.4524,-6.4529,-6.4593,-6.464,-6.4695,-6.4626,-6.4659,-6.4708,-6.4787,-6.4811,-6.4864,-6.4951,-6.5018,-6.5008,-6.5068,-6.5125,-6.5096,-6.5143,-6.5136,-6.5139,-6.488,-6.4846,-6.5166,-6.5166,-6.5166,-6.5166,-6.5166,-6.5165,-6.4701,-6.4823,-6.4803,-6.4934,-6.4938,-6.5024,-6.5048,-6.5077,-6.5096,-6.5196,-6.5251,-6.5244,-6.5254,-6.5314,-6.5372,-6.5368,-6.5393,-6.5451,-6.5435,-6.5192,-6.5157,-6.5124,-6.5091,-6.5458,-6.5458,-6.5687,-6.569,-6.5691]},{"header":{"parameterUnit":"m.s-1","parameterCategory":1,"la1":30.2991,"la2":30.254,"lo1":-89.0895,"lo2":-89.0444,"dy":0.0017,"dx":0.0017,"nx":28,"ny":28,"refTime":"2025-01-11T09:00:00:Z","depth":0,"parameterNumber":3,"parameterNumberName":"V-component_of_WINDS"},"data":[0,0,0,0,0,0,0,0,0,0,0,0,0,0,0,0,0,0,0,0,0,0,0,0,0,0,0,0,0,0,0,0,0,0,0,0,0,0,0,0,0,0,0,0,0,0,0,0,0,0,0,0,0,0,0,0,0,0,-0.2333,-0.2332,0,-0.222,-0.2219,-0.2217,-0.2224,-0.2226,-0.2228,-0.2229,-0.2109,-0.2104,-0.21,0,0,0,0,0,0,0,0,0,0,0,0,0,-0.2548,-0.2544,-0.2333,-0.2332,-0.233,-0.222,-0.2219,-0.2217,-0.2224,-0.2226,-0.2228,-0.223,-0.211,-0.2105,-0.2099,0,0,0,0,0,0,0,0,0,0,0,0,0,-0.2446,-0.2542,-0.2333,-0.232,-0.2318,-0.2221,-0.2219,-0.2217,-0.2223,-0.2226,-0.2228,-0.2231,-0.2112,-0.2105,-0.2098,-0.2005,0,0,-0.2077,-0.2074,0,0,0,0,0,0,0,0,-0.2452,-0.2438,-0.2324,-0.2321,-0.2318,-0.2239,-0.225,-0.2145,-0.2223,-0.2259,-0.2229,-0.2232,-0.215,-0.214,-0.2113,-0.1999,-0.1994,-0.2076,-0.2072,-0.2069,-0.2067,0,0,0,0,0,0,0,-0.2459,-0.2443,-0.2288,-0.2322,-0.2319,-0.2318,-0.2306,-0.223,-0.2192,-0.2256,-0.2257,-0.2243,-0.2149,-0.212,-0.211,-0.1992,-0.2076,-0.207,-0.2065,-0.2063,-0.1791,-0.1788,0,0,0,0,0,0,-0.247,-0.2449,-0.2292,-0.2285,-0.2393,-0.2312,-0.2299,-0.2262,-0.2193,-0.2185,-0.2241,-0.2244,-0.2131,-0.2118,-0.2106,-0.1988,-0.2069,-0.2062,-0.2058,-0.1794,-0.179,-0.1787,0,0,0,0,0,0,-0.2474,-0.2456,-0.2296,-0.2367,-0.2347,-0.2306,-0.2264,-0.2258,-0.2229,-0.2181,-0.2174,-0.2219,-0.2132,-0.2116,-0.2029,-0.1984,-0.2059,-0.2052,-0.1797,-0.1793,-0.1788,-0.1755,0,0,0,0,0,0,-0.2481,-0.2457,-0.2423,-0.2366,-0.2343,-0.2223,-0.2261,-0.2254,-0.2218,-0.222,-0.2159,-0.2151,-0.2133,-0.204,-0.2022,-0.1976,-0.2047,-0.1801,-0.1795,-0.179,-0.176,-0.175,-0.1741,0,0,0,0,0,-0.2488,-0.2418,-0.2422,-0.2402,-0.23,-0.2221,-0.2207,-0.2189,-0.2214,-0.2178,-0.2146,-0.2153,-0.1993,-0.2031,-0.2011,-0.1962,-0.1804,-0.1797,-0.179,-0.1764,-0.1752,-0.1742,0,0,0,0,0,0,-0.247,-0.2411,-0.2414,-0.2324,-0.2277,-0.2222,-0.2176,-0.2178,-0.2122,-0.2127,-0.2106,-0.2091,-0.2003,-0.1974,-0.2018,-0.1865,-0.1901,-0.189,-0.1888,-0.1876,-0.1867,-0.1874,-0.2041,0,0,0,0,0,-0.2456,-0.2399,-0.2349,-0.2275,-0.2251,-0.2218,-0.2183,-0.2173,-0.2123,-0.2103,-0.2066,-0.2016,-0.1954,-0.1914,-0.1854,-0.1756,-0.174,-0.1712,-0.1703,-0.1696,-0.1686,-0.1627,-0.1613,-0.1765,-0.1765,-0.1765,0,0,-0.2426,-0.2386,-0.2351,-0.227,-0.2233,-0.2171,-0.2201,-0.2136,-0.2089,-0.2093,-0.2008,-0.1978,-0.1921,-0.1827,-0.1784,-0.18,-0.164,-0.1687,-0.1682,-0.1676,-0.1619,-0.1605,-0.1592,-0.1761,-0.1761,-0.1762,0,0,-0.2339,-0.2305,-0.2237,-0.2199,-0.2142,-0.212,-0.2103,-0.2047,-0.2028,-0.1942,-0.1943,-0.1886,-0.1781,-0.1739,-0.1704,-0.1597,-0.1599,-0.1578,-0.1529,-0.1472,-0.146,-0.1449,-0.1408,-0.1393,-0.1569,-0.1569,-0.1568,0,-0.2308,-0.2217,-0.2201,-0.2134,-0.2097,-0.2098,-0.2027,-0.199,-0.1917,-0.1889,-0.1909,-0.1775,-0.1737,-0.1631,-0.1604,-0.1577,-0.1554,-0.1584,-0.1464,-0.1453,-0.1442,-0.1402,-0.1387,-0.1566,-0.1566,-0.1567,-0.1567,0,-0.218,-0.2117,-0.2068,-0.1997,-0.1954,-0.1886,-0.1857,-0.1815,-0.1808,-0.1782,-0.1693,-0.1647,-0.1576,-0.1551,-0.1544,-0.1442,-0.1454,-0.1469,-0.1504,-0.1426,-0.1387,-0.1372,-0.1563,-0.1564,-0.1564,-0.1565,0,0,-0.2079,-0.1998,-0.1981,-0.1947,-0.1883,-0.1832,-0.1762,-0.1694,-0.1657,-0.1605,-0.1543,-0.1453,-0.1466,-0.1426,-0.1413,-0.1364,-0.1277,-0.1384,-0.1383,-0.1363,-0.1158,-0.1145,-0.1128,-0.1279,-0.1276,-0.1274,-0.1162,0,-0.1983,-0.186,-0.1842,-0.1733,-0.1671,-0.167,-0.1609,-0.1561,-0.1535,-0.1477,-0.1448,-0.1382,-0.1406,-0.1381,-0.1332,-0.1298,-0.1235,-0.1306,-0.1218,-0.1215,-0.123,-0.1108,-0.1095,-0.0991,-0.1147,-0.1144,-0.1143,0,-0.1855,-0.1799,-0.1684,-0.1625,-0.1599,-0.1544,-0.1478,-0.1424,-0.1369,-0.1353,-0.1306,-0.1299,-0.1223,-0.1262,-0.1155,-0.1203,-0.1166,-0.1143,-0.1139,-0.1128,-0.1172,-0.1091,-0.0958,-0.0941,-0.112,-0.1121,-0.1123,0,-0.1788,-0.1685,-0.1601,-0.1573,-0.1503,-0.1464,-0.1433,-0.138,-0.1339,-0.1281,-0.1253,-0.1186,-0.1149,-0.1096,-0.107,-0.1102,-0.0962,-0.1001,-0.0944,-0.0944,-0.0913,-0.0915,-0.0769,-0.0894,-0.0894,-0.0894,-0.0895,0,-0.1681,-0.161,-0.157,-0.1519,-0.1437,-0.1416,-0.1335,-0.1304,-0.1257,-0.1197,-0.1192,-0.1136,-0.1106,-0.1043,-0.1022,-0.0934,-0.0918,-0.09,-0.0895,-0.0899,-0.0901,-0.0873,-0.0878,-0.089,-0.0891,-0.0892,-0.0893,0,-0.1593,-0.1564,-0.1472,-0.1413,-0.1396,-0.1338,-0.1287,-0.1235,-0.1208,-0.1132,-0.1113,-0.107,-0.0997,-0.0966,-0.0876,-0.0861,-0.0758,-0.076,-0.0777,-0.0775,-0.0718,-0.0723,-0.0547,-0.0521,-0.0666,-0.0665,-0.0664,0,-0.1525,-0.147,-0.1404,-0.1364,-0.1332,-0.1268,-0.1225,-0.1201,-0.1157,-0.1088,-0.1043,-0.097,-0.0909,-0.0791,-0.0751,-0.068,-0.0678,-0.0621,-0.0667,-0.0672,-0.0673,-0.0675,-0.0667,-0.0612,-0.0611,-0.061,-0.0609,0,-0.1407,-0.1394,-0.1335,-0.1268,-0.1218,-0.1164,-0.1112,-0.1079,-0.1046,-0.0995,-0.092,-0.0874,-0.078,-0.0706,-0.0633,-0.0598,-0.0596,-0.0595,-0.0577,-0.0579,-0.059,-0.058,-0.0751,-0.0598,-0.0599,-0.06,-0.0601,-0.0601,-0.1324,-0.1273,-0.1218,-0.115,-0.1108,-0.1059,-0.1006,-0.0972,-0.091,-0.0832,-0.0822,-0.074,-0.0682,-0.0584,-0.0546,-0.048,-0.0494,-0.0469,-0.0462,-0.0456,-0.045,-0.0603,-0.0467,-0.0467,-0.0467,-0.0467,-0.0468,0,-0.1202,-0.1167,-0.1104,-0.1031,-0.0976,-0.0981,-0.0922,-0.0875,-0.0804,-0.0751,-0.0692,-0.0603,-0.053,-0.0483,-0.0409,-0.0364,-0.0361,-0.0345,-0.0347,-0.0338,-0.0444,-0.0465,-0.0349,-0.0349,-0.0349,-0.0349,-0.0349,-0.0349,-0.1133,-0.1046,-0.1026,-0.0917,-0.0881,-0.0802,-0.0767,-0.072,-0.0677,-0.0579,-0.0518,-0.0489,-0.0436,-0.0358,-0.029,-0.0278,-0.0249,-0.0231,-0.0219,-0.0319,-0.0331,-0.0343,-0.0362,-0.0226,-0.0226,-0.0118,-0.0117,-0.0116]}]]